Lake Tahoe Airport
KTVL : rendu visible

Aérodrome :











RETROUVEZ-NOUS SUR...

 
LOGIN :

S'inscrire | Disclaimer

   EN    FR    IT 

 









Légende :    VFR   VFR Marginal   IFR   IFR Intensif   IFR Très Intensif
Visi : 
Plafond : 
>= 8 km
>= 3000ft
5 à 8 km
1000 à 3000 ft
1500m à 5 km
500 à 1000 ft
800 à 1500m
200 à 500 ft
< 800m
< 200 ft
Symboles :   Orages  Brouillard  Fortes neiges  Fortes précipitations  Vent > 20 kt






- Altitude de l'aérodrome : 6264 ft
- Code IATA : TVL


KTVL - Lake Tahoe

DERNIER METAR :
  • 011453Z AUTO 16010KT 10SM CLR 03/M08 A2988 RMK AO2 SLP100 T00331083 56009

METARs EXPIRÉS :
  • 011353Z AUTO 14008KT 110V180 10SM CLR 03/M07 A2989 RMK AO2 SLP100 T00281067
  • 011253Z AUTO 15007KT 10SM CLR 03/M05 A2990 RMK AO2 SLP102 T00281050

TAF KTVL
Valide du 01 à 12h jusqu'au 02 à 12h UTC


011133Z 0112/0212 19010KT P6SM FEW045
FM011800 20012G21KT P6SM FEW050
FM020300 VRB04KT P6SM FEW035



MET'MAP, la Météo Aéronautique d'un coup d'oeil ! - Copyright ORBIFLY Décembre 2007 - Disclaimer

ORBIFLY MET'MAP TEAM :

Programmation & Développement : Alexandra Zaïnal
Sur une idée originale de : Baudouin d'Aumeries
Assistance à la programmation : Marc-Olivier Méhu
Soutien technique & logistique : Manuel Goepfert

Contact : metmap@orbifly.com




SOURCES & CREDITS :

   NOAA       Earth
Advisory